Simultaneous Nadir Overpasses (SNOs) Predictions

Prediction of SNOs between GOES-14 and AQUA Satellite Orbit:

Table of predicted SNOs for the next 14.0 days since TLE Epoch: 6/11/2022
Index Date Time (GOES-14) GOES-14 Lat,Lon AQUA Lat,Lon Distance(km) Time Diff (sec)
1 06/11/2022 20:27:37 0.06,-104.74 0.62,-102.03 307.92 80
2 06/12/2022 08:46:06 -0.08,-104.48 0.48,-107.15 304.29 80
3 06/14/2022 08:36:14 -0.09,-104.48 -0.16,-104.10 43.31 80
4 06/16/2022 08:23:41 -0.08,-104.49 -0.81,-101.05 390.88 80
5 06/16/2022 20:42:20 0.11,-104.75 -0.20,-106.23 168.26 80
6 06/18/2022 20:32:27 0.11,-104.76 0.47,-103.18 179.70 80
7 06/19/2022 08:50:56 -0.13,-104.49 0.69,-108.30 433.33 80
8 06/21/2022 08:38:23 -0.13,-104.50 0.01,-105.25 84.56 80
9 06/23/2022 08:28:29 -0.13,-104.52 -0.62,-102.19 264.50 80
10 06/23/2022 20:47:09 0.15,-104.79 -0.37,-107.38 293.55 80
